Theta_e
325 326 328 330 330 330 329 326 324 327 328 328 326 326 325 325 327 327 326 325 325 325 326 327 327 327 328 328 329 328 328 328 327 329 329 328 328 329 327 325 320 315 313
324 325 327 330 330 330 327 327 326 325 325 328 327 327 326 325 325 325 323 323 324 324 325 327 328 328 327 328 327 327 327 328 327 326 327 327 328 327 324 319 321 320 316
323 324 326 328 329 328 327 327 327 327 327 328 329 329 327 327 327 327 327 326 326 325 325 327 326 328 328 328 328 328 327 327 326 326 325 325 325 322 318 316 323 323 323
321 324 325 327 328 326 328 330 329 327 325 327 328 330 328 327 327 328 328 327 327 327 326 327 326 327 328 328 327 327 328 328 325 324 324 322 318 320 320 316 319 317 319
320 323 324 326 330 327 326 328 330 328 324 324 327 330 329 330 330 329 328 329 329 328 327 328 328 327 327 327 326 326 325 327 326 323 321 322 323 323 321 317 318 320 321
319 321 324 324 329 327 327 323 324 325 325 324 324 326 329 330 331 329 328 328 328 328 327 328 327 328 328 328 326 324 324 324 323 322 321 322 321 321 321 319 321 323 323
318 319 323 323 325 328 327 325 323 322 324 324 322 319 326 326 326 329 330 329 329 330 329 330 330 329 326 323 320 320 323 321 324 323 321 322 322 323 322 323 323 322 323
320 319 320 322 323 326 325 324 324 323 323 322 320 318 318 318 322 324 326 320 319 322 321 321 324 324 314 316 315 320 322 321 322 324 324 323 325 325 325 324 323 322 321
320 320 318 321 322 323 324 323 322 322 322 321 320 318 319 319 324 325 324 322 322 320 322 320 317 317 317 317 317 316 315 315 314 314 314 314 314 314 315 316 314 315 317
320 321 319 318 322 323 323 324 324 323 323 324 324 322 314 316 318 318 320 323 320 322 323 322 318 315 314 314 317 313 312 313 312 312 313 313 313 313 313 312 312 310 309
321 321 320 317 319 321 323 323 325 325 326 325 324 323 321 311 311 313 317 320 316 314 311 311 311 309 310 317 318 317 320 319 317 315 314 315 317 317 316 315 314 314 314
321 321 321 319 317 320 321 322 323 323 325 324 324 323 322 316 308 309 314 316 313 312 310 309 311 311 313 316 316 316 316 316 313 311 312 316 318 319 318 317 315 314 314
321 321 321 320 318 320 321 322 322 320 324 321 323 321 321 318 308 307 312 313 312 313 313 314 314 314 314 314 313 312 311 310 309 309 317 320 321 319 318 317 318 318 314
322 321 321 320 320 321 319 320 320 320 322 323 321 321 320 319 309 306 309 312 313 316 316 316 315 315 314 312 311 310 310 310 310 311 318 319 320 320 320 320 317 311 309
323 322 322 321 321 321 320 323 320 322 314 322 320 319 319 318 312 307 308 312 313 317 318 318 316 313 311 311 313 315 315 317 320 321 322 322 321 318 312 311 308 304 305
324 323 322 323 322 320 320 323 322 322 321 320 319 318 318 318 316 312 310 313 315 316 317 315 312 312 314 318 320 320 319 320 322 322 320 316 312 312 310 303 305 305 305
324 324 323 322 323 321 322 322 322 320 321 318 319 319 319 318 318 317 315 314 314 313 313 311 314 318 320 321 322 321 320 321 321 321 316 313 310 300 304 304 303 303 301
325 325 324 322 324 323 321 320 323 320 319 319 318 318 318 318 318 318 318 316 315 312 311 313 316 319 322 322 323 324 322 321 318 312 311 301 303 303 303 301 302 302 301
326 326 325 324 323 325 322 321 319 321 319 317 317 317 318 318 318 318 317 317 315 313 313 314 317 322 321 321 323 322 321 319 314 303 298 298 297 299 300 300 299 298 298
328 327 325 325 325 324 324 322 321 319 321 319 317 315 316 317 317 316 316 316 314 314 316 318 321 322 323 323 321 319 316 305 298 300 303 297 298 296 297 297 297 299 299
330 328 327 325 325 326 324 324 323 322 320 321 319 318 316 312 316 317 317 316 315 314 317 323 323 324 323 320 317 313 300 300 304 300 297 299 296 296 296 297 296 296 297
331 330 329 327 326 324 326 324 325 323 323 321 321 319 319 318 313 312 315 316 313 315 323 323 322 321 317 314 306 301 300 304 302 297 297 295 297 297 297 296 296 296 295
330 331 330 329 328 327 325 326 324 325 325 323 322 321 320 317 316 313 313 316 321 324 323 322 320 315 311 302 301 304 303 300 296 296 296 298 298 296 297 297 296 295 294
331 330 330 331 330 329 328 327 326 326 325 325 324 322 321 318 320 321 323 324 325 323 320 317 316 311 302 305 307 304 299 297 296 295 296 296 296 296 297 296 293 292 292
330 330 329 329 330 329 328 328 327 327 326 325 325 323 321 325 325 325 324 323 320 320 316 314 303 301 307 307 303 300 298 295 294 294 295 296 296 296 294 292 292 291 290
329 328 329 329 329 329 328 328 327 326 326 326 324 323 324 324 321 321 321 319 317 314 311 300 302 306 304 300 299 296 294 294 294 294 294 294 294 293 291 291 291 290 289
Wind_Speed
4 3 4 4 6 4 8 11 11 15 14 15 18 20 21 21 24 25 26 25 22 23 21 19 18 23 32 27 32 28 25 25 28 22 18 16 16 13 11 13 11 8 10
5 5 6 5 6 5 10 14 14 12 13 15 18 20 21 20 20 20 19 21 20 19 17 14 24 26 27 28 27 23 25 16 12 22 17 18 16 14 8 14 10 9 8
8 6 8 6 6 7 8 13 16 15 14 17 18 18 19 22 20 18 19 20 20 19 16 15 26 27 27 27 28 21 17 13 15 18 13 12 17 15 12 14 11 9 14
10 8 9 7 7 10 11 10 14 16 20 19 17 17 16 17 15 17 18 21 19 17 16 18 22 26 25 32 24 17 16 13 16 11 12 16 15 14 12 15 15 14 19
12 10 11 10 10 11 11 12 11 16 21 19 21 19 12 17 19 20 22 19 20 23 21 22 27 26 22 26 22 17 17 15 16 12 14 14 13 15 17 11 12 11 14
14 12 13 13 12 13 12 13 13 15 14 14 14 16 18 20 17 21 21 21 22 22 21 24 25 18 18 16 14 15 16 15 17 15 17 12 10 10 9 11 14 15 20
16 15 15 16 14 13 13 14 14 14 14 12 8 16 20 21 19 19 19 20 20 20 20 21 20 18 16 19 20 18 18 19 15 15 14 10 13 11 12 10 12 17 21
17 16 17 17 16 15 14 14 16 17 13 10 10 15 17 19 20 20 18 19 21 22 19 17 22 23 20 18 18 23 19 19 18 15 16 16 13 12 12 13 17 19 20
19 18 19 19 19 18 17 16 14 18 16 14 11 13 15 17 20 18 15 18 17 20 15 14 17 18 17 16 15 16 15 14 13 12 11 10 9 10 12 14 15 16 18
21 20 19 20 21 20 20 18 15 17 17 15 11 9 13 16 17 15 14 10 14 17 17 14 16 15 15 16 14 14 14 12 10 9 7 8 9 12 14 16 18 19 20
22 20 20 20 23 21 22 21 19 18 14 15 12 12 11 15 17 18 17 13 10 13 13 15 16 17 18 18 16 14 10 8 6 5 6 8 12 16 16 14 13 17 16
23 22 21 22 22 23 24 22 20 20 17 18 16 14 13 14 18 19 20 14 13 11 11 15 16 17 18 17 13 10 8 8 7 6 5 4 7 10 10 7 10 13 19
24 24 24 24 21 23 26 24 21 22 18 20 18 17 15 15 18 22 24 20 19 16 14 18 18 18 17 13 9 7 8 9 10 7 1 2 7 8 11 13 17 18 18
27 26 27 26 22 23 23 26 24 24 25 20 20 18 17 17 18 24 28 25 25 20 19 16 15 14 12 11 10 10 12 12 11 9 6 13 14 16 16 16 14 14 19
30 28 29 28 23 25 23 23 24 22 24 22 21 19 20 22 21 25 27 27 28 23 20 16 15 13 12 12 12 13 8 4 4 9 8 10 12 11 7 10 14 14 16
33 32 32 30 27 27 26 23 18 21 16 22 19 19 19 21 17 21 25 25 26 24 18 16 14 12 11 9 4 2 7 13 13 8 10 6 5 9 13 12 15 15 11
36 35 33 31 29 29 26 26 26 25 22 22 25 23 22 22 21 19 22 24 23 22 21 18 14 10 7 9 13 21 26 20 12 9 5 4 11 8 11 11 8 11 14
39 36 36 37 31 32 30 29 26 27 29 28 30 27 27 22 27 24 22 23 23 21 20 19 14 12 12 16 16 18 17 8 3 4 5 8 10 8 5 8 12 14 16
41 40 38 34 36 30 31 30 30 26 28 33 31 34 31 30 23 25 25 26 25 24 22 20 14 20 22 23 26 19 13 9 6 5 8 8 5 3 7 8 9 13 16
39 42 41 38 33 34 33 33 33 32 29 31 31 34 38 33 30 30 30 28 24 18 14 15 24 24 25 24 20 13 12 11 12 9 4 3 6 5 5 9 12 13 14
36 39 40 38 34 35 34 35 34 34 34 33 36 32 26 41 40 37 34 32 29 24 20 30 28 26 24 17 18 17 16 15 7 8 8 5 4 6 7 9 12 15 17
30 34 39 43 38 39 31 36 32 36 35 35 34 40 32 24 36 43 41 37 29 26 30 32 30 26 21 21 21 19 18 13 14 13 9 4 2 7 7 11 15 17 18
27 25 30 37 39 34 39 24 37 32 32 33 35 33 38 34 31 30 30 32 34 35 31 31 25 26 28 25 22 16 13 16 14 11 7 7 2 5 8 11 14 17 17
22 24 26 25 30 33 34 35 30 30 31 29 30 32 33 31 36 37 38 39 39 35 29 28 26 27 30 25 20 19 23 19 15 11 8 6 2 5 4 9 13 14 15
23 17 23 23 24 29 29 31 31 24 30 28 27 32 42 41 40 38 44 41 37 36 31 27 32 32 27 23 25 29 25 17 12 8 7 6 3 1 5 9 10 14 15
20 22 13 23 21 21 22 24 28 21 25 24 30 43 42 42 38 40 42 38 34 32 36 37 33 27 26 29 30 25 20 14 10 9 8 5 2 2 6 7 11 14 16
Wind_Direction
168 162 117 98 85 71 68 70 80 101 108 95 114 123 137 143 148 153 157 151 144 140 134 122 143 150 167 168 164 164 167 165 163 164 177 190 197 200 197 197 198 192 217
176 161 140 124 111 90 88 82 76 105 115 113 117 122 134 144 150 152 153 154 165 168 162 141 157 147 149 162 167 170 167 156 154 180 180 192 189 190 189 195 197 224 238
177 173 153 141 142 108 110 94 87 89 111 121 129 123 141 145 150 151 154 158 165 157 163 142 148 149 151 157 162 152 159 163 170 177 176 177 174 186 195 198 194 209 251
183 175 160 151 128 101 103 95 90 101 102 112 127 119 124 140 140 138 145 156 159 150 156 155 157 153 153 158 153 150 160 164 170 171 161 154 172 190 201 203 213 221 234
184 181 168 158 144 129 115 114 106 103 106 97 101 98 112 127 129 125 124 129 137 128 124 149 150 146 151 164 160 150 157 173 172 171 156 161 184 202 212 220 240 251 253
183 185 175 166 155 150 145 127 120 112 97 101 107 118 115 113 115 131 127 125 129 135 132 134 146 151 152 156 167 167 171 177 169 171 175 186 209 226 236 235 232 245 261
185 187 181 172 172 163 154 146 138 131 125 134 110 125 129 124 118 120 127 137 145 140 136 141 146 152 161 164 171 174 172 176 184 185 190 198 209 235 252 259 262 249 259
185 186 184 179 180 168 167 166 163 154 146 141 134 135 131 126 125 124 126 125 128 131 134 150 161 163 166 167 161 168 174 177 182 185 179 194 204 213 236 254 260 265 276
188 188 187 185 186 178 178 188 182 166 159 148 157 165 162 150 142 140 143 145 144 140 149 161 163 162 162 162 170 177 178 186 188 193 203 219 236 250 251 263 274 282 294
192 190 191 188 191 187 186 194 191 176 171 158 172 181 178 178 175 168 148 164 166 166 178 169 178 177 169 166 168 173 175 176 182 199 226 253 276 290 299 302 304 298 298
193 192 193 193 195 195 193 204 196 181 182 171 188 184 204 190 188 182 165 177 196 184 181 175 169 162 163 161 171 167 163 181 192 242 292 332 349 348 335 320 307 304 310
194 193 193 195 195 198 200 206 204 188 192 183 199 207 205 204 194 189 178 176 173 164 176 169 161 158 164 172 174 175 181 210 241 269 281 321 329 288 290 307 308 309 313
196 195 195 199 196 200 198 203 206 199 193 202 196 209 204 220 194 187 183 181 170 169 180 173 174 177 182 187 185 205 228 245 255 268 19 278 256 265 284 300 301 303 312
199 196 195 202 199 205 211 212 211 206 191 212 204 207 200 221 202 192 188 185 178 176 179 190 187 193 198 206 223 244 252 260 271 280 255 249 260 273 285 292 299 319 332
199 198 195 205 206 205 217 210 208 215 207 202 203 207 199 213 218 200 197 192 189 187 191 197 201 206 223 243 246 253 258 236 217 222 224 256 284 305 323 328 334 350 11
199 198 194 195 207 203 215 206 219 208 227 196 207 211 209 214 221 205 204 201 200 202 206 209 217 228 238 247 261 237 173 194 194 233 308 314 348 337 332 13 29 15 1
201 199 198 197 204 202 208 201 209 203 216 207 203 208 211 210 216 216 208 207 210 211 217 222 222 235 233 237 219 200 202 202 215 266 281 310 333 49 50 21 346 331 344
203 204 202 203 204 209 206 209 208 214 210 212 208 209 214 213 211 218 220 217 212 213 215 213 220 233 198 197 205 207 196 188 211 165 357 52 42 35 12 14 17 360 350
202 203 205 207 206 211 209 212 211 215 221 223 218 213 217 219 213 215 218 222 222 222 222 226 215 217 211 212 217 206 206 217 196 152 124 95 80 34 30 21 6 356 357
209 205 205 204 213 210 214 210 214 215 219 220 228 224 217 218 214 206 207 210 210 217 232 224 210 203 202 205 197 199 173 146 128 98 86 133 95 68 23 20 15 9 350
210 207 208 208 209 216 214 214 215 216 217 218 218 230 225 223 220 221 217 214 218 227 235 194 194 201 207 207 179 164 148 133 135 170 155 123 85 43 35 20 11 0 350
207 209 214 215 217 217 221 221 219 219 220 220 220 227 227 207 226 225 226 230 235 221 199 201 207 208 195 170 161 156 147 156 173 169 153 141 81 35 30 14 3 348 338
211 214 216 221 217 220 217 230 228 227 223 219 219 222 216 213 214 213 210 200 200 198 194 201 200 175 166 161 149 155 163 171 172 162 151 122 76 23 32 357 335 334 338
213 216 216 220 231 226 223 228 239 226 224 226 221 217 205 186 190 190 189 192 195 193 196 203 190 170 160 162 156 153 175 175 176 171 156 150 112 49 5 322 326 346 343
207 222 218 216 224 225 223 227 225 236 219 220 220 197 178 189 191 203 195 194 193 201 196 178 165 166 168 163 163 170 174 178 169 160 171 149 129 258 329 335 354 351 343
232 224 244 216 217 216 211 218 220 213 211 202 184 182 190 192 198 202 194 195 199 188 172 167 169 167 162 162 172 177 174 164 160 166 173 180 158 16 358 5 354 357 353